Tracking 18784 objects as of 17-August-2017
HD Live streaming from Space Station
objects crossing your sky now

SL-14 R/B

Track SL-14 R/B now!
10-day predictions


NORAD ID: 16736
Int'l Code: 1986-039B
Perigee: 945.7 km
Apogee: 962.8 km
Inclination: 82.5 °
Period: 104.0 minutes
Semi major axis: 7325 km
RCS: 5.1168 m2 (large)
Launch date: May 27, 1986
Source: Commonwealth of Independent States (former USSR) (CIS)
Launch site: PLESETSK MISSILE AND SPACE COMPLEX (PKMTR)

Note: This is a ROCKET BODY
Your satellite tracking list
Your tracking list is empty





NASA's NSSDC Master Catalog

Two Line Element Set (TLE):
1 16736U 86039B   17228.22711449  .00000018  00000-0  25924-5 0  9995
2 16736  82.5409 339.5792 0011705 292.4567  67.5353 13.84742619578004
Source of the keplerian elements: AFSPC